Location: Bryzozowice
(50.3667°N, 18.9667°E)
Time: 18:50:44
(UTC+00:00)

STARLINK-1116 - Pass Details

Date: 24 January 2020
Orbit: 348 x 351 km, 53.0° (Epoch: 28 February)

Event Time Altitude Azimuth Distance (km) Brightness Sun altitude
Rises 17:02:51 0° 277° (W) 2,179 8.1 -15.7°
Reaches altitude 10° 17:04:55 10° 284° (WNW) 1,334 6.6 -16.0°
Maximum altitude 17:07:48 47° 360° (N) 482 3.2 -16.5°
Enters shadow 17:08:12 43° 29° (NNE) 512 3.2 -16.6°
